Time,TemperatureF,DewpointF,PressureIn,WindDirection,WindDirectionDegrees,WindSpeedMPH,WindSpeedGustMPH,Humidity,HourlyPrecipIn,Conditions,Clouds,dailyrainin,SoftwareType,DateUTC
2013-01-02 00:07:00,164.0,99.9,29.90,WSW,244,0.0,-999.0,86,-99.99,,,0.00,weatherlink.com 1.10,2013-01-02 05:07:00,
2013-01-02 00:22:00,164.0,99.9,29.89,WSW,244,0.0,-999.0,86,-99.99,,,0.00,weatherlink.com 1.10,2013-01-02 05:22:00,
2013-01-02 00:37:00,164.0,99.9,29.90,WSW,244,0.0,-999.0,86,-99.99,,,0.00,weatherlink.com 1.10,2013-01-02 05:37:00,
2013-01-02 00:52:00,164.0,99.9,29.90,WSW,244,0.0,-999.0,88,-99.99,,,0.00,weatherlink.com 1.10,2013-01-02 05:52:00,
2013-01-02 01:07:00,164.0,99.9,29.90,WSW,244,0.0,-999.0,86,-99.99,,,0.00,weatherlink.com 1.10,2013-01-02 06:07:00,
2013-01-02 01:22:00,164.0,99.9,29.88,WSW,244,0.0,-999.0,84,-99.99,,,0.00,weatherlink.com 1.10,2013-01-02 06:22:00,
2013-01-02 01:37:00,164.0,99.9,29.88,WSW,244,0.0,-999.0,81,-99.99,,,0.00,weatherlink.com 1.10,2013-01-02 06:37:00,
2013-01-02 01:52:00,164.0,99.9,29.88,WSW,244,0.0,-999.0,86,-99.99,,,0.00,weatherlink.com 1.10,2013-01-02 06:52:00,
2013-01-02 02:08:00,164.0,99.9,29.89,WSW,244,0.0,-999.0,88,-99.99,,,0.00,weatherlink.com 1.10,2013-01-02 07:08:00,
2013-01-02 02:23:00,164.0,99.9,29.90,WSW,244,0.0,-999.0,82,-99.99,,,0.00,weatherlink.com 1.10,2013-01-02 07:23:00,
2013-01-02 02:38:00,164.0,99.9,29.89,ESE,113,0.0,-999.0,88,-99.99,,,0.00,weatherlink.com 1.10,2013-01-02 07:38:00,
2013-01-02 03:08:00,164.0,99.9,29.89,ESE,113,0.0,-999.0,85,-99.99,,,0.00,weatherlink.com 1.10,2013-01-02 08:08:00,
2013-01-02 03:23:00,164.0,99.9,29.88,ESE,113,0.0,-999.0,87,-99.99,,,0.00,weatherlink.com 1.10,2013-01-02 08:23:00,
2013-01-02 03:38:00,164.0,99.9,29.88,ESE,113,0.0,-999.0,87,-99.99,,,0.00,weatherlink.com 1.10,2013-01-02 08:38:00,
2013-01-02 03:53:00,164.0,99.9,29.87,ESE,113,0.0,-999.0,85,-99.99,,,0.00,weatherlink.com 1.10,2013-01-02 08:53:00,
2013-01-02 04:08:00,164.0,99.9,29.87,ESE,113,2.0,-999.0,85,-99.99,,,0.00,weatherlink.com 1.10,2013-01-02 09:08:00,
2013-01-02 04:23:00,0.3,-2.0,29.87,ESE,113,0.0,-999.0,88,-99.99,,,0.00,weatherlink.com 1.10,2013-01-02 09:23:00,
2013-01-02 04:38:00,2.0,-1.0,29.94,ESE,113,2.0,-999.0,87,-99.99,,,0.00,weatherlink.com 1.10,2013-01-02 09:38:00,
2013-01-02 04:53:00,3.7,1.0,29.93,ESE,112,0.0,-999.0,87,-99.99,,,0.00,weatherlink.com 1.10,2013-01-02 09:53:00,
2013-01-02 05:08:00,6.0,3.0,29.93,ESE,112,0.0,-999.0,87,-99.99,,,0.00,weatherlink.com 1.10,2013-01-02 10:08:00,
2013-01-02 05:23:00,5.5,3.0,29.93,ESE,112,1.0,-999.0,87,-99.99,,,0.00,weatherlink.com 1.10,2013-01-02 10:23:00,
2013-01-02 05:39:00,6.6,4.0,29.92,ESE,114,0.0,-999.0,88,-99.99,,,0.00,weatherlink.com 1.10,2013-01-02 10:39:00,
2013-01-02 05:54:00,8.5,5.0,29.92,ESE,113,1.0,-999.0,85,-99.99,,,0.00,weatherlink.com 1.10,2013-01-02 10:54:00,
2013-01-02 06:09:00,8.3,5.0,29.92,ESE,113,0.0,-999.0,86,-99.99,,,0.00,weatherlink.com 1.10,2013-01-02 11:09:00,
2013-01-02 06:24:00,10.4,7.0,29.91,ESE,111,0.0,-999.0,85,-99.99,,,0.00,weatherlink.com 1.10,2013-01-02 11:24:00,
2013-01-02 06:39:00,11.6,8.0,29.91,ESE,111,0.0,-999.0,84,-99.99,,,0.00,weatherlink.com 1.10,2013-01-02 11:39:00,
2013-01-02 06:54:00,12.3,8.0,29.91,ESE,120,0.0,-999.0,82,-99.99,,,0.00,weatherlink.com 1.10,2013-01-02 11:54:00,
2013-01-02 07:09:00,12.7,8.0,29.91,ESE,119,1.0,-999.0,81,-99.99,,,0.00,weatherlink.com 1.10,2013-01-02 12:09:00,
2013-01-02 07:24:00,13.3,8.0,29.91,SSE,156,0.0,-999.0,80,-99.99,,,0.00,weatherlink.com 1.10,2013-01-02 12:24:00,
2013-01-02 07:39:00,14.1,9.0,29.92,SSW,212,1.0,-999.0,79,-99.99,,,0.00,weatherlink.com 1.10,2013-01-02 12:39:00,
2013-01-02 07:54:00,14.5,9.0,29.93,SSW,210,2.0,-999.0,79,-99.99,,,0.00,weatherlink.com 1.10,2013-01-02 12:54:00,
2013-01-02 08:09:00,14.3,9.0,29.93,WSW,248,2.0,-999.0,79,-99.99,,,0.00,weatherlink.com 1.10,2013-01-02 13:09:00,
2013-01-02 08:24:00,14.1,9.0,29.94,WSW,242,4.0,-999.0,80,-99.99,,,0.00,weatherlink.com 1.10,2013-01-02 13:24:00,
2013-01-02 08:39:00,14.1,10.0,29.94,WSW,249,4.0,-999.0,83,-99.99,,,0.00,weatherlink.com 1.10,2013-01-02 13:39:00,
2013-01-02 08:54:00,14.4,10.0,29.95,WSW,257,9.0,-999.0,84,-99.99,,,0.00,weatherlink.com 1.10,2013-01-02 13:54:00,
2013-01-02 09:10:00,15.1,11.0,29.95,SW,226,6.0,-999.0,85,-99.99,,,0.00,weatherlink.com 1.10,2013-01-02 14:10:00,
2013-01-02 09:25:00,15.5,12.0,29.95,SW,221,6.0,-999.0,84,-99.99,,,0.00,weatherlink.com 1.10,2013-01-02 14:25:00,
2013-01-02 09:40:00,16.4,13.0,29.89,ESE,110,1.0,-999.0,85,-99.99,,,0.00,weatherlink.com 1.10,2013-01-02 14:40:00,
2013-01-02 09:55:00,16.6,13.0,29.89,ESE,108,4.0,-999.0,85,-99.99,,,0.00,weatherlink.com 1.10,2013-01-02 14:55:00,
2013-01-02 10:10:00,16.9,13.0,29.91,NE,53,3.0,-999.0,84,-99.99,,,0.00,weatherlink.com 1.10,2013-01-02 15:10:00,
2013-01-02 10:25:00,17.5,14.0,29.91,NE,52,4.0,-999.0,85,-99.99,,,0.00,weatherlink.com 1.10,2013-01-02 15:25:00,
2013-01-02 10:40:00,17.6,14.0,29.91,NE,39,3.0,-999.0,86,-99.99,,,0.00,weatherlink.com 1.10,2013-01-02 15:40:00,
2013-01-02 10:55:00,17.8,14.0,29.92,NE,39,2.0,-999.0,86,-99.99,,,0.00,weatherlink.com 1.10,2013-01-02 15:55:00,
2013-01-02 11:10:00,18.4,15.0,29.92,NE,39,2.0,-999.0,86,-99.99,,,0.00,weatherlink.com 1.10,2013-01-02 16:10:00,
2013-01-02 11:25:00,19.2,15.0,29.91,WNW,298,6.0,-999.0,85,-99.99,,,0.00,weatherlink.com 1.10,2013-01-02 16:25:00,
2013-01-02 11:40:00,19.8,15.0,29.91,NW,316,3.0,-999.0,83,-99.99,,,0.00,weatherlink.com 1.10,2013-01-02 16:40:00,
2013-01-02 11:55:00,19.6,16.0,29.91,North,359,7.0,-999.0,84,-99.99,,,0.00,weatherlink.com 1.10,2013-01-02 16:55:00,
2013-01-02 12:10:00,18.5,14.0,29.91,North,0,12.0,-999.0,82,-99.99,,,0.00,weatherlink.com 1.10,2013-01-02 17:10:00,
2013-01-02 12:26:00,17.9,13.0,29.92,NNE,15,10.0,-999.0,81,-99.99,,,0.00,weatherlink.com 1.10,2013-01-02 17:26:00,
2013-01-02 12:41:00,17.3,13.0,29.92,North,0,7.0,-999.0,83,-99.99,,,0.00,weatherlink.com 1.10,2013-01-02 17:41:00,
2013-01-02 12:56:00,16.6,12.0,29.92,NE,46,16.0,-999.0,83,-99.99,,,0.00,weatherlink.com 1.10,2013-01-02 17:56:00,
2013-01-02 13:11:00,15.8,12.0,29.92,NNE,16,8.0,-999.0,83,-99.99,,,0.00,weatherlink.com 1.10,2013-01-02 18:11:00,
2013-01-02 13:26:00,15.4,11.0,29.93,North,1,12.0,-999.0,82,-99.99,,,0.00,weatherlink.com 1.10,2013-01-02 18:26:00,
2013-01-02 13:41:00,14.9,10.0,29.94,NNE,30,11.0,-999.0,82,-99.99,,,0.00,weatherlink.com 1.10,2013-01-02 18:41:00,
2013-01-02 13:56:00,14.4,10.0,29.94,North,1,6.0,-999.0,81,-99.99,,,0.00,weatherlink.com 1.10,2013-01-02 18:56:00,
2013-01-02 14:11:00,14.2,9.0,29.95,North,0,10.0,-999.0,80,-99.99,,,0.00,weatherlink.com 1.10,2013-01-02 19:11:00,
2013-01-02 14:26:00,13.7,8.0,29.97,NNW,346,11.0,-999.0,78,-99.99,,,0.00,weatherlink.com 1.10,2013-01-02 19:26:00,
2013-01-02 14:41:00,13.2,8.0,29.98,North,359,11.0,-999.0,78,-99.99,,,0.00,weatherlink.com 1.10,2013-01-02 19:41:00,
2013-01-02 14:56:00,12.8,7.0,29.99,North,1,10.0,-999.0,78,-99.99,,,0.00,weatherlink.com 1.10,2013-01-02 19:56:00,
2013-01-02 15:11:00,12.5,7.0,30.00,NNE,17,9.0,-999.0,77,-99.99,,,0.00,weatherlink.com 1.10,2013-01-02 20:11:00,
2013-01-02 15:26:00,11.7,5.0,30.00,North,7,5.0,-999.0,75,-99.99,,,0.00,weatherlink.com 1.10,2013-01-02 20:26:00,
2013-01-02 15:41:00,11.1,4.0,30.02,NNE,15,5.0,-999.0,73,-99.99,,,0.00,weatherlink.com 1.10,2013-01-02 20:41:00,
2013-01-02 15:57:00,10.5,3.0,30.05,North,1,11.0,-999.0,73,-99.99,,,0.00,weatherlink.com 1.10,2013-01-02 20:57:00,
2013-01-02 16:12:00,9.4,2.0,30.05,North,6,7.0,-999.0,73,-99.99,,,0.00,weatherlink.com 1.10,2013-01-02 21:12:00,
2013-01-02 16:27:00,8.9,2.0,30.05,North,359,3.0,-999.0,74,-99.99,,,0.00,weatherlink.com 1.10,2013-01-02 21:27:00,
2013-01-02 16:42:00,8.1,1.0,30.14,NNE,21,10.0,-999.0,72,-99.99,,,0.00,weatherlink.com 1.10,2013-01-02 21:42:00,
2013-01-02 16:57:00,7.7,1.0,30.14,North,1,10.0,-999.0,73,-99.99,,,0.00,weatherlink.com 1.10,2013-01-02 21:57:00,
2013-01-02 17:12:00,7.4,1.0,30.15,NNE,27,5.0,-999.0,74,-99.99,,,0.00,weatherlink.com 1.10,2013-01-02 22:12:00,
2013-01-02 17:27:00,7.0,0.0,30.17,North,0,15.0,-999.0,74,-99.99,,,0.00,weatherlink.com 1.10,2013-01-02 22:27:00,
2013-01-02 17:42:00,6.1,-1.0,30.17,North,359,8.0,-999.0,74,-99.99,,,0.00,weatherlink.com 1.10,2013-01-02 22:42:00,
2013-01-02 17:57:00,6.0,-1.0,30.17,North,6,11.0,-999.0,74,-99.99,,,0.00,weatherlink.com 1.10,2013-01-02 22:57:00,
2013-01-02 18:12:00,5.4,-1.0,30.18,NNE,17,8.0,-999.0,74,-99.99,,,0.00,weatherlink.com 1.10,2013-01-02 23:12:00,
2013-01-02 18:27:00,5.2,-2.0,30.19,NNE,24,7.0,-999.0,73,-99.99,,,0.00,weatherlink.com 1.10,2013-01-02 23:27:00,
2013-01-02 18:42:00,4.8,-2.0,30.20,NNE,33,11.0,-999.0,73,-99.99,,,0.00,weatherlink.com 1.10,2013-01-02 23:42:00,
2013-01-02 18:57:00,4.8,-2.0,30.20,North,1,9.0,-999.0,73,-99.99,,,0.00,weatherlink.com 1.10,2013-01-02 23:57:00,
2013-01-02 19:12:00,4.5,-3.0,30.20,North,0,11.0,-999.0,72,-99.99,,,0.00,weatherlink.com 1.10,2013-01-03 00:12:00,
2013-01-02 19:28:00,4.3,-3.0,30.20,North,11,10.0,-999.0,72,-99.99,,,0.00,weatherlink.com 1.10,2013-01-03 00:28:00,
2013-01-02 19:43:00,3.8,-3.0,30.20,NNE,13,13.0,-999.0,72,-99.99,,,0.00,weatherlink.com 1.10,2013-01-03 00:43:00,
2013-01-02 19:58:00,3.2,-4.0,30.20,NNE,17,10.0,-999.0,72,-99.99,,,0.00,weatherlink.com 1.10,2013-01-03 00:58:00,
2013-01-02 20:13:00,2.8,-4.0,30.21,North,359,9.0,-999.0,72,-99.99,,,0.00,weatherlink.com 1.10,2013-01-03 01:13:00,
2013-01-02 20:28:00,2.7,-4.0,30.21,NNE,20,10.0,-999.0,72,-99.99,,,0.00,weatherlink.com 1.10,2013-01-03 01:28:00,
2013-01-02 20:43:00,2.2,-5.0,30.23,North,359,11.0,-999.0,73,-99.99,,,0.00,weatherlink.com 1.10,2013-01-03 01:43:00,
2013-01-02 20:58:00,2.0,-5.0,30.24,NNW,343,8.0,-999.0,73,-99.99,,,0.00,weatherlink.com 1.10,2013-01-03 01:58:00,
2013-01-02 21:13:00,1.9,-5.0,30.24,North,359,8.0,-999.0,73,-99.99,,,0.00,weatherlink.com 1.10,2013-01-03 02:13:00,
2013-01-02 21:28:00,1.4,-5.0,30.25,NNW,332,9.0,-999.0,74,-99.99,,,0.00,weatherlink.com 1.10,2013-01-03 02:28:00,
2013-01-02 21:43:00,1.2,-6.0,30.25,NNW,328,1.0,-999.0,73,-99.99,,,0.00,weatherlink.com 1.10,2013-01-03 02:43:00,
2013-01-02 21:58:00,0.9,-6.0,30.25,North,0,7.0,-999.0,74,-99.99,,,0.00,weatherlink.com 1.10,2013-01-03 02:58:00,
2013-01-02 22:13:00,0.8,-5.0,30.24,North,359,7.0,-999.0,75,-99.99,,,0.00,weatherlink.com 1.10,2013-01-03 03:13:00,
2013-01-02 22:43:00,0.0,-6.0,30.25,North,2,3.0,-999.0,75,-99.99,,,0.00,weatherlink.com 1.10,2013-01-03 03:43:00,
2013-01-02 22:59:00,0.1,-6.0,30.26,North,358,3.0,-999.0,76,-99.99,,,0.00,weatherlink.com 1.10,2013-01-03 03:59:00,
2013-01-02 23:14:00,0.5,-5.0,30.26,North,359,6.0,-999.0,76,-99.99,,,0.00,weatherlink.com 1.10,2013-01-03 04:14:00,
2013-01-02 23:29:00,164.0,99.9,30.26,North,4,2.0,-999.0,75,-99.99,,,0.00,weatherlink.com 1.10,2013-01-03 04:29:00,
2013-01-02 23:44:00,164.0,99.9,30.18,North,4,0.0,-999.0,76,-99.99,,,0.00,weatherlink.com 1.10,2013-01-03 04:44:00,
2013-01-02 23:59:00,164.0,99.9,30.18,North,4,1.0,-999.0,77,-99.99,,,0.00,weatherlink.com 1.10,2013-01-03 04:59:00,